Regional Weather Roundup
Issued by NWS Green Bay, WI

Home | Current Version | Previous Version | Graphics & Text | Print | Product List | Glossary Off
Versions: 1 2 3 4 5 6 7 8 9 10 11 12 13 14 15 16 17 18 19 20 21 22 23 24 25 26 27 28 29 30 31 32 33 34 35 36 37 38 39 40 41 42 43 44 45 46 47 48 49 50

408
ASUS43 KGRB 230511
RWRGRB

NORTH-CENTRAL AND NORTHEAST WISCONSIN REGIONAL WEATHER ROUNDUP
NATIONAL WEATHER SERVICE GREEN BAY WI
1200 AM CDT WED AUG 23 2017

WIZ005-009-010>012-018-019-230600-
NORTH CENTRAL WISCONSIN

CITY           SKY/WX    TMP DP  RH WIND       PRES   REMARKS
IRONWOOD       CLOUDY    55  54  96 W7        29.96R
MANITOWISH WTR CLEAR     52  52 100 NW3       29.96R
ARBOR VITAE    CLEAR     57  54  91 NW7       29.95S
EAGLE RIVER    CLEAR     55  50  84 NW8       29.94S
LAND O LAKES   CLEAR     55  53  91 NW9       29.95S
RHINELANDER    CLEAR     55  51  86 W6        29.96R
PHILLIPS       CLEAR     55  52  89 NW5       29.97S
ANTIGO         PTCLDY    53  50  89 W6        29.95S
TOMAHAWK         N/A     53  49  88 W5        29.97S
MERRILL        CLEAR     54  52  94 W5        29.97R
$$

WIZ013-073-230600-
NORTHEAST WISCONSIN

CITY           SKY/WX    TMP DP  RH WIND       PRES   REMARKS
IRON MOUNTAIN  CLEAR     56  50  80 W9        29.89R
MARINETTE      CLEAR     58  52  80 W3        29.90S
OCONTO         CLEAR     56  50  80 W7        29.91R
$$

WIZ017-030-035>037-045-230600-
CENTRAL WISCONSIN

CITY           SKY/WX    TMP DP  RH WIND       PRES   REMARKS
MEDFORD        CLEAR     54  48  81 W6        29.99R
WAUSAU         CLEAR     57  50  77 W10       29.96R
MOSINEE        CLEAR     55  50  82 W8        29.98S
MARSHFIELD     CLEAR     56  47  71 W6        29.98S
WISC RAPIDS    CLEAR     58  49  72 W8        30.00R
STEVENS POINT  CLEAR     57  49  74 SW6       29.98S
WAUPACA        CLEAR     61  49  66 W8        29.97S
SHAWANO        CLEAR     61  50  67 W6        29.94R
CLINTONVILLE   CLEAR     57  46  67 W5        29.95S
WAUTOMA        CLEAR     56  50  80 W6        29.99R
$$

WIZ038-039-048-051-230600-
FOX VALLEY

CITY           SKY/WX    TMP DP  RH WIND       PRES   REMARKS
NWS GREEN BAY  CLEAR     59  52  77 W9        29.94R
APPLETON       CLEAR     55  46  71 W7        29.95R
OSHKOSH        CLEAR     59  49  69 CALM      29.96S
FOND DU LAC    CLEAR     61  48  62 W9        29.97S
$$

WIZ022-050-052-230600-
EAST CENTRAL WISCONSIN

CITY           SKY/WX    TMP DP  RH WIND       PRES   REMARKS
EPHRAIM        FAIR      60  52  73 NW7       29.88S
WASHINGTON ISL NOT AVBL
STURGEON BAY   CLEAR     63  53  70 W10       29.91R
MANITOWOC      CLEAR     61  50  67 W8        29.94S
SHEBOYGAN      CLEAR     57  54  89 W5        29.96R
$$

LMZ563-521-522-541>543-230600-
LAKESHORE

STATION/POSITION TIME  TEMP    WIND        PRES    VSBY  WAVE
                       AIR SEA DIR/SP/G                  HT/PER
                 (UTC) (F)     (DEG/KT/KT) (MB)    (MI)  (FT/S)
SHEBOYGAN LKSHOR 0500   63     250/  9/ 11 1014.0R
KEWAUNEE LKSHORE 0442   61     290/  3/  5 1012.0F
NORTHPORT PIER   0440   64     290/ 10/ 18 1011.2S
N MID LAKE BUOY  0450   65 67  280/ 17/ 21 1011.0R         3/ 4
S GREEN BAY BUOY 0500   65 71  270/ 16/ 17 1012.6
SISTER BAY LKSHO 0418   65     310/ 19/ 24   N/A
MENOMINEE LKSHOR 0442   62     260/  7/ 10 1012.1R
$$




USA.gov is the U.S. government's official web portal to all federal, state and local government web resources and services.